DateTime,F1_A11,F1_S11,BsB_S11,BsG_S11,BsR_S11,BbsB_S11,BbsG_S11,BbsR_S11,BaB_A11,BaG_A11,BaR_A11,T_S11,U_S11,P_S11,T1_A11
2016-03-10T00:00:00Z,0000380,21000600,,,,,,,,,,25.0,00.0,0647.2,34.3
2016-03-10T00:01:00Z,0000380,21000600,,,,,,,,,,25.0,00.0,0647.2,34.3
2016-03-10T00:02:00Z,0000380,21000600,,,,,,,,,,25.0,00.0,0647.2,34.3
2016-03-10T00:03:00Z,0000380,61000600,,,,,,,,,,25.1,00.0,0647.2,34.3
2016-03-10T00:04:00Z,0000380,41000600,0000.17,-000.45,0000.49,-000.31,0000.05,-000.02,0000.17,0000.03,-000.17,25.2,00.0,0648.0,34.3
2016-03-10T00:05:00Z,0000380,01000600,-000.75,-000.57,0000.41,0000.00,-000.19,0000.52,-000.17,-000.08,0000.05,25.3,00.0,0647.7,34.3
2016-03-10T00:06:00Z,0000380,01000600,0000.99,-000.35,0000.12,-000.47,-000.16,0000.15,0000.15,0000.26,-000.10,25.3,00.0,0648.0,34.3
2016-03-10T00:07:00Z,0000380,01000600,-000.34,-000.11,-000.11,0000.08,0000.34,0000.00,-000.02,-000.29,0000.17,25.3,00.0,0648.0,34.3
2016-03-10T00:08:00Z,0000380,01000600,-000.69,0000.05,0000.18,0000.32,-000.15,0000.37,0000.12,-000.01,-000.16,25.3,00.0,0648.1,34.3
2016-03-10T00:09:00Z,0000380,01000600,0000.83,-000.65,0000.16,-000.47,-000.03,0000.10,-000.18,0000.14,-000.00,25.3,00.0,0648.1,34.3
2016-03-10T00:10:00Z,0000380,01000600,0000.63,0000.04,0000.48,-000.50,0000.05,-000.24,-000.01,-000.08,0000.10,25.3,00.0,0648.1,34.3
2016-03-10T00:11:00Z,0000380,01000600,0000.40,-000.24,0000.37,-000.20,-000.49,-000.33,0000.12,0000.15,0000.12,25.4,00.0,0648.1,34.3
2016-03-10T00:12:00Z,0000380,01000600,0000.02,0000.02,-000.08,-000.47,0000.37,-000.03,0000.18,0000.00,-000.04,25.4,00.0,0648.0,34.3
2016-03-10T00:13:00Z,0000380,01000600,-000.65,0000.00,-000.16,0000.26,0000.31,0000.03,-000.21,-000.01,-000.18,25.5,00.0,0648.0,34.3
2016-03-10T00:14:00Z,0000380,01000600,0000.92,-000.32,0000.04,-000.50,-000.11,-000.07,0000.27,0000.24,0000.31,25.5,00.0,0648.0,34.3
2016-03-10T00:15:00Z,0000380,01000600,0000.66,0000.23,0000.14,0000.37,-000.10,0000.31,-000.20,-000.12,0000.04,25.5,00.0,0647.8,34.4
2016-03-10T00:16:00Z,0000380,01000600,0000.92,-000.07,0000.07,0000.34,-000.57,0000.15,0000.29,-000.09,-000.07,25.5,00.0,0647.9,34.4
2016-03-10T00:17:00Z,0000380,01000600,-000.48,-000.62,0000.05,0000.03,-000.42,-000.13,-000.17,0000.05,0000.04,25.5,00.0,0647.8,34.4
2016-03-10T00:18:00Z,0000380,01000600,-000.86,-000.20,0000.07,0000.23,-000.34,0000.00,-000.00,0000.05,0000.07,25.5,00.0,0647.8,34.4
2016-03-10T00:19:00Z,0000380,01000600,-000.36,0000.18,0000.13,-000.03,-000.13,-000.07,0000.00,0000.20,0000.14,25.6,00.0,0647.9,34.4
2016-03-10T00:20:00Z,0000380,01000600,-000.26,0000.00,0000.27,-000.60,-000.08,-000.05,-000.03,-000.05,-000.20,25.6,00.0,0647.8,34.4
2016-03-10T00:21:00Z,0000380,01000600,0000.06,0000.04,-000.16,0000.37,0000.37,0000.21,0000.29,0000.18,0000.15,25.7,00.0,0647.9,34.4
2016-03-10T00:22:00Z,0000380,01000600,0000.75,0000.27,0000.66,0000.36,0000.00,0000.34,-000.07,0000.04,0000.11,25.7,00.0,0647.8,34.4
2016-03-10T00:23:00Z,0000380,01000600,-000.65,0000.88,-000.08,-000.47,-000.08,-000.13,0000.03,-000.11,-000.25,25.7,00.0,0647.9,34.4
2016-03-10T00:24:00Z,0000380,01000600,0000.14,-000.24,0000.39,0000.29,-000.02,0000.29,-000.10,0000.00,-000.05,25.7,00.0,0647.8,34.4
2016-03-10T00:25:00Z,0000380,01000600,-000.13,-000.59,-000.05,0000.47,-000.03,0000.10,0000.04,0000.08,-000.08,25.8,00.0,0647.8,34.4
2016-03-10T00:26:00Z,0000380,01000600,0000.02,0000.34,-000.04,-000.57,0000.18,-000.24,0000.08,-000.02,0000.30,25.8,00.0,0647.7,34.4
2016-03-10T00:27:00Z,0000380,01000600,-000.77,0000.21,0000.00,-000.21,-000.21,0000.10,0000.00,0000.06,-000.24,25.8,00.0,0647.8,34.4
2016-03-10T00:28:00Z,0000380,01000600,-000.07,-000.50,0000.52,-000.50,-000.23,0000.00,0000.12,0000.05,0000.22,25.8,00.0,0647.9,34.4
2016-03-10T00:29:00Z,0000380,01000600,-000.21,-000.59,-000.07,-000.13,-000.39,-000.03,0000.04,0000.15,0000.41,25.8,00.0,0647.8,34.4
2016-03-10T00:30:00Z,0000380,01000600,-000.13,0000.15,-000.22,-000.13,0000.02,-000.16,0000.00,-000.26,-000.21,25.8,00.0,0647.9,34.4
2016-03-10T00:31:00Z,0000380,01000600,0000.99,0000.47,0000.35,0000.00,0000.24,0000.03,-000.06,0000.14,-000.17,25.8,00.0,0647.7,34.4
2016-03-10T00:32:00Z,0000380,01000600,-000.31,0000.43,-000.14,-000.37,-000.63,-000.29,0000.09,0000.10,0000.26,25.8,00.0,0648.0,34.4
2016-03-10T00:33:00Z,0000380,01000600,0000.10,-000.38,0000.09,0000.18,0000.55,0000.77,0000.03,-000.24,-000.18,25.9,00.0,0647.7,34.4
2016-03-10T00:34:00Z,0000380,01000600,0000.53,-000.30,0000.16,-000.77,0000.39,-000.16,-000.09,0000.19,-000.10,25.9,00.0,0647.5,34.4
2016-03-10T00:35:00Z,0000380,01000600,0000.39,-000.31,-000.31,-000.67,0000.31,-000.13,0000.26,0000.05,0000.50,25.9,00.0,0647.5,34.4
2016-03-10T00:36:00Z,0000380,01000600,0000.32,0000.56,0000.25,-000.90,-000.10,-000.02,-000.01,-000.03,-000.01,25.9,00.0,0647.7,34.4
2016-03-10T00:37:00Z,0000380,01000600,0000.12,0000.11,-000.13,0000.10,-000.18,-000.03,-000.09,0000.26,0000.01,25.9,00.0,0648.0,34.4
2016-03-10T00:38:00Z,0000380,01000600,0000.19,0000.28,-000.19,-000.46,0000.24,0000.00,0000.06,-000.01,-000.35,25.9,00.0,0647.9,34.4
2016-03-10T00:39:00Z,0000380,01000600,-000.91,-000.09,0000.13,-000.11,-000.02,-000.13,0000.07,-000.07,0000.08,25.9,00.0,0647.7,34.4
2016-03-10T00:40:00Z,0000380,01000600,0000.31,0000.40,0000.34,-000.78,-000.28,0000.15,0000.11,-000.14,0000.16,26.0,00.0,0647.9,34.4
2016-03-10T00:41:00Z,0000380,01000600,0000.26,-000.60,0000.24,-000.31,-000.23,-000.07,0000.05,0000.00,-000.13,26.0,00.0,0647.7,34.4
2016-03-10T00:42:00Z,0000380,01000600,-000.26,0000.02,-000.02,0000.41,-000.02,0000.34,-000.07,0000.16,0000.20,26.0,00.0,0647.6,34.4
2016-03-10T00:43:00Z,0000380,01000600,0000.58,-000.22,0000.31,-000.33,-000.24,0000.31,-000.05,0000.12,-000.07,26.0,00.0,0647.4,34.4
2016-03-10T00:44:00Z,0000380,01000600,-000.64,0000.00,-000.31,-000.07,-000.21,-000.41,-000.03,-000.14,0000.12,26.0,00.0,0647.6,34.4
2016-03-10T00:45:00Z,0000380,01000600,-000.30,0000.29,0000.53,-000.20,0000.08,0000.07,0000.25,0000.09,0000.11,25.9,00.0,0647.5,34.3
2016-03-10T00:46:00Z,0000380,01000600,0001.41,-000.16,0000.05,-000.36,-000.08,0000.15,-000.08,0000.19,0000.19,25.9,00.0,0647.5,34.3
2016-03-10T00:47:00Z,0000380,01000600,0000.00,-000.08,0000.40,-000.31,0000.26,0000.34,0000.01,-000.14,-000.28,25.9,00.0,0647.5,34.3
2016-03-10T00:48:00Z,0000380,01000600,-000.36,-000.25,0000.04,-000.67,-000.60,0000.13,-000.04,0000.03,0000.06,25.9,00.0,0647.7,34.3
2016-03-10T00:49:00Z,0000380,01000600,0000.23,-000.48,0000.44,0000.20,0000.16,-000.07,0000.12,0000.32,0000.20,25.9,00.0,0647.8,34.3
2016-03-10T00:50:00Z,0000380,01000600,0000.27,-000.32,-000.20,0000.02,-000.08,-000.33,0000.06,-000.11,-000.21,25.9,00.0,0647.5,34.3
2016-03-10T00:51:00Z,0000380,01000600,0000.25,-000.04,0000.09,-000.70,-000.18,0000.23,0000.10,0000.03,0000.47,25.9,00.0,0647.5,34.3
2016-03-10T00:52:00Z,0000380,01000600,-000.62,0000.11,0000.13,0000.28,-000.21,-000.07,0000.00,0000.14,-000.07,25.9,00.0,0647.6,34.3
2016-03-10T00:53:00Z,0000380,01000600,-000.17,0000.22,-000.40,0000.07,-000.28,0000.00,-000.10,-000.13,-000.05,25.9,00.0,0647.5,34.3
2016-03-10T00:54:00Z,0000380,01000600,0000.37,-000.16,0000.76,0000.07,-000.03,0000.60,0000.22,0000.12,0000.14,26.0,00.0,0647.6,34.3
2016-03-10T00:55:00Z,0000380,01000600,-000.87,0000.22,0000.33,0000.37,-000.36,-000.15,-000.13,-000.17,-000.45,26.0,00.0,0647.7,34.3
2016-03-10T00:56:00Z,0000380,01000600,0000.73,0000.08,0000.07,-000.29,-000.10,-000.24,0000.03,0000.23,0000.18,25.9,00.0,0647.7,34.3
2016-03-10T00:57:00Z,0000380,41000600,,,,,,,,,,,,0647.5,34.3
2016-03-10T00:58:00Z,0000380,61000600,,,,,,,,,,25.8,00.0,0646.7,34.3
2016-03-10T00:59:00Z,0000380,21000600,,,,,,,,,,25.8,00.0,0646.7,34.3
2016-03-10T01:00:00Z,0000380,21000600,,,,,,,,,,25.8,00.0,0646.7,34.4
2016-03-10T01:01:00Z,0000380,21000600,,,,,,,,,,25.8,00.0,0646.7,34.4
2016-03-10T01:02:00Z,0000380,21000600,,,,,,,,,,25.8,00.0,0646.7,34.4
2016-03-10T01:03:00Z,0000380,61000600,,,,,,,,,,25.9,00.0,0646.8,34.4
2016-03-10T01:04:00Z,0000380,41000600,0000.06,0000.58,0000.04,0000.08,0000.19,0000.28,0000.03,-000.10,0000.09,26.0,00.0,0647.5,34.4
2016-03-10T01:05:00Z,0000380,01000600,0000.48,0001.47,0000.27,-000.05,0000.00,-000.23,-000.12,-000.26,-000.30,26.0,00.0,0647.6,34.4
2016-03-10T01:06:00Z,0000380,01000600,0001.69,0000.08,-000.15,0000.68,-000.18,0000.08,0000.03,0000.13,0000.37,26.0,00.0,0647.8,34.4
2016-03-10T01:07:00Z,0000380,01000600,0000.00,0000.02,-000.19,0000.21,-000.03,0000.16,0000.12,-000.03,-000.13,26.0,00.0,0647.6,34.4
2016-03-10T01:08:00Z,0000380,01000600,0000.80,0000.13,0000.04,0000.08,-000.19,-000.42,0000.02,0000.16,0000.13,26.0,00.0,0647.7,34.4
2016-03-10T01:09:00Z,0000380,01000600,-000.49,0000.60,0000.04,0000.02,0000.19,0000.02,0000.30,0000.08,0000.44,26.0,00.0,0647.5,34.4
2016-03-10T01:10:00Z,0000380,01000600,-000.81,0000.41,0000.00,-000.10,-000.02,0000.21,-000.07,0000.08,-000.01,26.1,00.0,0647.6,34.4
2016-03-10T01:11:00Z,0000380,01000600,-000.23,0000.39,0000.14,0000.33,-000.26,-000.15,0000.10,0000.22,-000.12,26.0,00.0,0647.7,34.4
2016-03-10T01:12:00Z,0000380,01000600,-000.26,0000.00,-000.25,-000.23,0000.08,-000.20,-000.00,0000.06,0000.11,26.0,00.0,0647.6,34.4
2016-03-10T01:13:00Z,0000380,01000600,-001.01,0000.20,-000.09,-000.16,-000.05,0000.03,-000.07,-000.02,0000.04,26.0,00.0,0647.6,34.4
2016-03-10T01:14:00Z,0000380,01000600,0000.60,0001.01,-000.14,-000.23,-000.57,-000.26,0000.20,-000.09,-000.20,26.0,00.0,0647.7,34.4
2016-03-10T01:15:00Z,0000380,01000600,0001.14,0000.11,0000.36,-000.33,-000.31,0000.10,-000.10,0000.08,0000.26,26.0,00.0,0647.6,34.3
2016-03-10T01:16:00Z,0000380,01000600,0001.27,0000.81,0000.15,-000.20,-000.19,-000.16,-000.05,0000.15,0000.18,26.0,00.0,0647.6,34.3
2016-03-10T01:17:00Z,0000380,01000600,0000.42,-000.39,0000.03,-000.34,-000.21,0000.15,-000.07,-000.27,-000.60,26.0,00.0,0647.5,34.3
2016-03-10T01:18:00Z,0000380,01000600,0001.18,0000.77,-000.03,-000.23,-000.06,0000.31,-000.06,-000.00,0000.20,26.0,00.0,0647.6,34.3
2016-03-10T01:19:00Z,0000380,01000600,0000.45,-000.15,0000.29,0000.05,-000.06,0000.03,0000.11,-000.02,0000.18,26.0,00.0,0647.6,34.3
2016-03-10T01:20:00Z,0000380,01000600,-000.02,0000.14,-000.02,-000.15,-000.28,-000.18,0000.11,0000.17,-000.20,26.0,00.0,0647.4,34.3
2016-03-10T01:21:00Z,0000380,01000600,-001.14,0000.13,0000.27,-000.03,-000.10,0000.15,0000.01,0000.14,0000.16,26.0,00.0,0647.4,34.3
2016-03-10T01:22:00Z,0000380,01000600,-000.38,0000.74,0000.12,-000.05,-000.32,-000.07,0000.17,-000.16,0000.01,26.0,00.0,0647.5,34.3
2016-03-10T01:23:00Z,0000380,01000600,-000.31,0000.26,0000.08,0000.41,-000.16,-000.21,-000.18,0000.01,0000.37,26.0,00.0,0647.3,34.3
2016-03-10T01:24:00Z,0000380,01000600,-000.73,0000.22,-000.36,-000.10,-000.05,-000.26,0000.15,0000.12,-000.21,26.0,00.0,0647.4,34.3
2016-03-10T01:25:00Z,0000380,01000600,0001.46,0000.55,0000.07,-000.08,-000.41,-000.21,0000.15,-000.01,0000.07,26.0,00.0,0647.5,34.3
2016-03-10T01:26:00Z,0000380,01000600,0001.07,0000.35,0000.17,-000.20,-000.49,-000.20,0000.10,-000.00,-000.00,26.0,00.0,0647.4,34.3
2016-03-10T01:27:00Z,0000380,01000600,0000.02,0000.13,-000.20,0000.07,-000.39,0000.02,-000.15,0000.05,0000.13,26.0,00.0,0647.4,34.3
2016-03-10T01:28:00Z,0000380,01000600,0000.72,0000.70,0000.12,-000.20,-000.10,-000.07,-000.00,0000.07,-000.29,26.1,00.0,0647.4,34.3
2016-03-10T01:29:00Z,0000380,01000600,0000.56,0000.66,-000.32,-000.10,-000.23,0000.05,-000.02,-000.12,0000.55,26.1,00.0,0647.3,34.3
2016-03-10T01:30:00Z,0000380,01000600,-000.47,0001.22,0000.14,-000.15,-000.21,-000.16,0000.13,0000.18,-000.30,26.1,00.0,0647.3,34.4
2016-03-10T01:31:00Z,0000380,01000600,0001.01,0000.51,0000.28,-000.59,0000.02,-000.07,-000.04,-000.04,0000.27,26.2,00.0,0647.4,34.4
2016-03-10T01:32:00Z,0000380,01000600,-001.27,0000.53,0000.07,-000.75,-000.11,0000.15,0000.42,0000.19,0000.02,26.2,00.0,0647.1,34.4
2016-03-10T01:33:00Z,0000380,01010600,-000.65,0000.07,0000.34,0000.46,-000.21,0000.25,-000.16,-000.10,-000.18,26.2,00.0,0647.1,34.4
2016-03-10T01:34:00Z,0000380,01000600,0000.23,0000.42,0000.05,-000.03,0000.00,-000.34,0000.01,-000.02,0000.10,26.2,00.0,0647.1,34.4
2016-03-10T01:35:00Z,0000380,01000600,0000.38,-000.47,-000.18,0000.16,-000.20,-000.08,0000.10,0000.10,-000.32,26.2,00.0,0647.0,34.4
2016-03-10T01:36:00Z,0000380,01000600,0000.63,0000.22,-000.17,0000.10,-000.31,-000.13,-000.12,-000.01,0000.10,26.2,00.0,0647.2,34.4
2016-03-10T01:37:00Z,0000380,01000600,-000.19,0000.37,0000.34,0000.24,-000.62,-000.18,0000.11,-000.01,-000.16,26.2,00.0,0647.3,34.4
2016-03-10T01:38:00Z,0000380,01000600,-000.08,0000.19,-000.06,0000.54,-000.31,0000.05,-000.22,-000.21,0000.17,26.2,00.0,0647.3,34.4
2016-03-10T01:39:00Z,0000380,01000600,-000.41,-000.18,0000.37,0000.10,-000.21,0000.08,0000.20,0000.11,-000.26,26.3,00.0,0647.1,34.4
2016-03-10T01:40:00Z,0000380,01000600,-000.29,0000.34,-000.05,-000.87,-000.10,-000.13,0000.01,-000.06,0000.42,26.3,00.0,0647.2,34.4
2016-03-10T01:41:00Z,0000380,01000600,0000.92,0000.79,0000.24,-000.28,-000.15,0000.10,-000.18,-000.11,-000.32,26.3,00.0,0647.3,34.4
2016-03-10T01:42:00Z,0000380,01000600,0000.24,-000.13,-000.85,0000.16,-000.20,-000.07,-000.05,0000.18,0000.23,26.3,00.0,0647.3,34.4
2016-03-10T01:43:00Z,0000380,01000600,0000.64,0000.25,0000.35,0000.07,0000.07,0000.20,-000.06,-000.11,0000.05,26.3,00.0,0647.2,34.4
2016-03-10T01:44:00Z,0000380,01000600,-000.19,0000.07,0000.00,0000.16,-000.20,0000.00,0000.19,0000.12,0000.06,26.3,00.0,0647.3,34.4
2016-03-10T01:45:00Z,0000380,01000600,-000.41,0000.95,-000.45,-000.08,0000.00,0000.42,-000.18,-000.06,-000.25,26.3,00.0,0647.3,34.4
2016-03-10T01:46:00Z,0000380,01000600,0000.74,0000.60,-000.27,0000.33,-000.49,-000.13,0000.17,0000.09,-000.07,26.3,00.0,0647.4,34.4
2016-03-10T01:47:00Z,0000380,01000600,-000.36,0000.18,0000.31,-000.36,0000.18,0000.21,-000.02,-000.07,-000.22,26.3,00.0,0647.3,34.4
2016-03-10T01:48:00Z,0000380,01000600,0000.76,0000.65,-000.14,-000.15,0000.26,-000.38,0000.12,0000.03,0000.43,26.3,00.0,0647.3,34.4
2016-03-10T01:49:00Z,0000380,01000600,-000.84,0000.32,0000.46,0000.18,-000.41,0000.00,-000.03,0000.12,-000.25,26.3,00.0,0647.3,34.4
2016-03-10T01:50:00Z,0000380,01000600,0000.94,0000.14,-000.49,0000.78,-000.50,-000.10,-000.04,-000.22,-000.01,26.3,00.0,0647.2,34.4
2016-03-10T01:51:00Z,0000380,01000600,0000.36,-000.40,0000.14,-000.23,-000.62,-000.03,0000.02,0000.12,0000.22,26.4,00.0,0647.3,34.4
2016-03-10T01:52:00Z,0000380,01000600,0000.95,0000.62,-000.01,-000.64,-000.16,-000.18,0000.15,-000.09,-000.02,26.5,00.0,0647.4,34.4
2016-03-10T01:53:00Z,0000380,01000600,0000.41,0000.38,0000.10,-000.23,-000.39,-000.03,-000.09,0000.10,0000.03,26.5,00.0,0647.2,34.4
2016-03-10T01:54:00Z,0000380,01000600,-001.20,0001.19,0000.44,0000.11,-000.62,0000.07,-000.02,-000.14,0000.19,26.5,00.0,0647.2,34.4
2016-03-10T01:55:00Z,0000380,01000600,-000.73,0000.55,0000.11,-000.34,-000.21,0000.05,0000.01,0000.07,-000.50,26.5,00.0,0647.4,34.4
2016-03-10T01:56:00Z,0000380,01000600,0000.21,0000.19,0000.08,0000.31,-000.52,-000.25,0000.01,0000.03,0000.12,26.5,00.0,0647.4,34.4
2016-03-10T01:57:00Z,0000380,41000600,,,,,,,,,,,,0647.4,34.4
2016-03-10T01:58:00Z,0000380,61000600,,,,,,,,,,26.5,00.0,0646.6,34.4
2016-03-10T01:59:00Z,0000380,21000600,,,,,,,,,,26.5,00.0,0646.5,34.4
2016-03-10T02:00:00Z,0000380,21000600,,,,,,,,,,26.5,00.0,0646.6,34.5
2016-03-10T02:01:00Z,0000380,21000600,,,,,,,,,,26.5,00.0,0646.6,34.5
2016-03-10T02:02:00Z,0000380,21000600,,,,,,,,,,26.5,00.0,0646.6,34.5
2016-03-10T02:03:00Z,0000380,61000600,,,,,,,,,,26.6,00.0,0646.6,34.5
2016-03-10T02:04:00Z,0000380,41000600,-000.37,0000.43,0000.09,-000.65,0000.28,-000.29,0000.10,0000.08,0000.24,26.8,00.0,0647.3,34.5
2016-03-10T02:05:00Z,0000380,01000600,0000.58,0000.24,-000.38,0000.51,-000.08,0000.00,0000.00,0000.12,0000.15,26.8,00.0,0647.3,34.5
2016-03-10T02:06:00Z,0000380,01000600,-000.36,0000.76,-000.11,0000.92,-000.08,0000.05,0000.18,0000.04,0000.21,26.8,00.0,0647.3,34.5
2016-03-10T02:07:00Z,0000380,01000600,-000.40,0000.29,0000.14,0000.07,0000.24,-000.05,0000.15,-000.03,-000.07,26.8,00.0,0647.3,34.5
2016-03-10T02:08:00Z,0000380,01000600,-000.13,0000.18,0000.21,0000.16,0000.07,-000.02,-000.19,-000.02,0000.11,26.8,00.0,0647.4,34.5
2016-03-10T02:09:00Z,0000380,01000600,0000.14,0000.67,0000.46,0000.44,0000.55,-000.20,-000.06,0000.12,0000.21,26.8,00.0,0647.3,34.5
2016-03-10T02:10:00Z,0000380,01000600,-000.83,0000.21,-000.21,0000.08,0000.20,-000.23,0000.16,0000.16,-000.26,26.8,00.0,0647.5,34.5
2016-03-10T02:11:00Z,0000380,01000600,-000.13,0000.68,0000.47,-000.05,-000.03,-000.10,0000.11,-000.06,-000.15,26.8,00.0,0647.3,34.5
2016-03-10T02:12:00Z,0000380,01000600,-001.01,0000.36,0000.19,0000.36,-000.08,0000.03,0000.04,-000.04,0000.03,26.7,00.0,0647.3,34.5
2016-03-10T02:13:00Z,0000380,01000600,-000.17,0000.30,0000.51,0000.21,0000.20,-000.21,-000.13,0000.01,-000.25,26.7,00.0,0647.5,34.5
2016-03-10T02:14:00Z,0000380,01000600,0001.97,0000.16,0000.46,0000.31,0000.03,0000.25,0000.12,0000.09,0000.52,26.7,00.0,0647.4,34.5
2016-03-10T02:15:00Z,0000380,01000600,0000.95,0000.10,-000.11,0000.08,0000.10,-000.07,-000.31,-000.19,-000.03,26.7,00.0,0647.3,34.4
2016-03-10T02:16:00Z,0000380,01000600,0000.31,0000.11,-000.02,0000.74,0000.07,-000.08,-000.02,0000.01,-000.29,26.7,00.0,0647.4,34.4
2016-03-10T02:17:00Z,0000380,01000600,-000.48,-000.08,-000.02,-000.10,-000.07,-000.10,0000.21,0000.03,0000.16,26.7,00.0,0647.2,34.4
2016-03-10T02:18:00Z,0000380,01000600,0000.52,0000.07,-000.03,-000.15,-000.16,0000.05,0000.08,-000.09,-000.31,26.7,00.0,0647.2,34.4
2016-03-10T02:19:00Z,0000380,01000600,0000.75,-000.02,0000.30,0000.25,0000.18,0000.34,-000.17,0000.07,-000.08,26.7,00.0,0647.3,34.4
2016-03-10T02:20:00Z,0000380,01000600,-000.02,0000.21,0000.39,0000.33,0000.18,-000.07,-000.09,-000.07,0000.07,26.7,00.0,0647.4,34.4
2016-03-10T02:21:00Z,0000380,01000600,0000.05,-000.23,0001.44,-000.39,0000.33,0000.11,0000.04,-000.04,0000.30,26.7,00.0,0647.3,34.4
2016-03-10T02:22:00Z,0000380,01000600,0001.29,0002.40,0002.37,-000.23,0000.67,0000.43,0001.98,0002.16,0001.75,26.8,00.0,0647.3,34.4
2016-03-10T02:23:00Z,0000380,01000600,-000.36,0000.23,0000.04,0000.41,-000.18,0000.10,-000.49,-000.61,-000.72,26.8,00.0,0647.3,34.4
2016-03-10T02:24:00Z,0000380,01000600,-001.36,0000.84,-000.07,-000.18,-000.07,0000.18,0000.20,0000.21,0000.20,26.8,00.0,0647.3,34.4
2016-03-10T02:25:00Z,0000380,01000600,0000.11,0000.47,0000.02,0000.36,0000.18,-000.67,0000.07,-000.06,0000.09,26.8,00.0,0647.4,34.4
2016-03-10T02:26:00Z,0000380,01000600,0000.05,0000.42,-000.08,0000.34,0000.15,-000.07,-000.05,-000.14,-000.01,26.8,00.0,0647.3,34.4
2016-03-10T02:27:00Z,0000380,01000600,-000.44,0000.53,-000.02,-000.20,-000.13,-000.51,0000.12,0000.15,0000.25,26.8,00.0,0647.2,34.4
2016-03-10T02:28:00Z,0000380,01000600,0000.99,0000.31,0000.20,-000.31,-000.24,0000.00,-000.10,0000.11,-000.04,26.8,00.0,0647.3,34.4
2016-03-10T02:29:00Z,0000380,01000600,0000.58,0001.04,0000.87,0000.31,0000.55,-000.08,0000.13,-000.01,0000.05,26.8,00.0,0647.2,34.4
2016-03-10T02:30:00Z,0000380,01000600,-000.15,0000.74,0000.02,-000.64,-000.05,0000.00,-000.29,-000.03,-000.25,26.8,00.0,0647.3,34.4
2016-03-10T02:31:00Z,0000380,01000600,0000.38,0000.10,0000.02,0000.28,0000.05,-000.29,0000.16,0000.01,-000.01,26.8,00.0,0647.2,34.4
2016-03-10T02:32:00Z,0000380,01000600,0000.08,0000.91,0000.48,-000.10,0000.54,0000.13,-000.02,-000.07,0000.15,26.8,00.0,0647.4,34.4
2016-03-10T02:33:00Z,0000380,01000600,-001.25,0000.32,-000.05,0000.00,-000.10,-000.20,0000.20,0000.23,0000.02,26.8,00.0,0647.2,34.4
2016-03-10T02:34:00Z,0000380,01000600,0000.09,0000.22,0000.10,0000.21,-000.08,0000.38,-000.23,-000.06,0000.14,26.8,00.0,0647.3,34.4
2016-03-10T02:35:00Z,0000380,01000600,0000.41,0000.46,0000.58,-000.07,0000.37,-000.07,0000.35,0000.18,-000.06,26.8,00.0,0647.3,34.4
2016-03-10T02:36:00Z,0000380,01000600,-000.51,0000.48,0000.14,0000.39,0000.03,0000.31,-000.06,-000.02,-000.02,26.8,00.0,0647.2,34.4
2016-03-10T02:37:00Z,0000380,01000600,-001.74,0000.11,0000.00,-000.49,0000.26,-000.13,-000.00,0000.15,0000.09,26.8,00.0,0647.2,34.4
2016-03-10T02:38:00Z,0000380,01000600,0000.70,0000.48,0000.30,-000.07,-000.33,-000.11,0000.14,-000.00,0000.04,26.8,00.0,0647.3,34.4
2016-03-10T02:39:00Z,0000380,01000600,-000.31,0000.38,0000.05,-000.07,-000.02,-000.03,0000.27,-000.05,0000.35,26.8,00.0,0647.1,34.4
2016-03-10T02:40:00Z,0000380,01000600,0000.08,-000.17,0000.18,-000.16,0000.21,-000.38,-000.04,0000.17,-000.10,26.8,00.0,0647.3,34.4
2016-03-10T02:41:00Z,0000380,01000600,0000.04,0000.16,0000.43,0000.39,0000.33,-000.13,-000.04,0000.04,-000.10,26.8,00.0,0647.3,34.4
2016-03-10T02:42:00Z,0000380,01000600,-000.38,0000.00,0000.10,-000.44,-000.37,-000.02,-000.03,-000.09,0000.23,26.8,00.0,0647.2,34.4
2016-03-10T02:43:00Z,0000380,01000600,0000.09,0000.49,-000.12,0000.28,-000.31,0000.10,0000.06,0000.06,-000.06,26.8,00.0,0647.2,34.4
2016-03-10T02:44:00Z,0000380,01000600,0000.23,0001.38,-000.54,0000.51,0000.24,-000.03,0000.12,-000.02,-000.13,26.8,00.0,0647.3,34.4
2016-03-10T02:45:00Z,0000380,01000600,0000.96,0000.91,0000.25,0000.02,0000.23,-000.10,0000.09,-000.04,-000.46,26.8,00.0,0647.3,34.4
2016-03-10T02:46:00Z,0000380,01000600,0001.10,0000.29,-000.06,0000.31,0000.02,0000.15,-000.15,-000.03,0000.45,26.8,00.0,0647.2,34.4
2016-03-10T02:47:00Z,0000380,01000600,-000.33,0000.64,0000.04,0000.51,0000.15,-000.43,-000.01,-000.03,-000.39,26.8,00.0,0647.3,34.4
2016-03-10T02:48:00Z,0000380,01000600,-000.62,0000.02,-000.11,0000.41,-000.07,0000.02,-000.06,-000.06,0000.20,26.8,00.0,0647.1,34.4
2016-03-10T02:49:00Z,0000380,01000600,0000.19,0000.96,0000.28,0000.26,0000.34,-000.10,0000.04,-000.00,0000.02,26.8,00.0,0647.2,34.4
2016-03-10T02:50:00Z,0000380,01000600,-001.38,-000.14,0000.39,0000.74,0000.23,-000.07,-000.01,-000.03,0000.05,26.8,00.0,0647.2,34.4
2016-03-10T02:51:00Z,0000380,01000600,0000.22,0000.17,0000.24,-000.18,0000.34,-000.29,0000.05,0000.10,-000.14,26.9,00.0,0647.1,34.4
2016-03-10T02:52:00Z,0000380,01000600,-000.53,0000.34,0000.28,-000.03,0000.33,-000.43,0000.12,-000.03,0000.25,26.9,00.0,0647.1,34.4
2016-03-10T02:53:00Z,0000380,01000600,0001.46,0000.08,0000.07,0000.02,-000.18,-000.20,-000.17,-000.04,0000.15,27.0,00.0,0647.2,34.4
2016-03-10T02:54:00Z,0000380,01000600,0000.20,0000.11,-000.12,-000.02,0000.28,-000.08,0000.06,0000.04,-000.11,27.0,00.0,0647.2,34.4
2016-03-10T02:55:00Z,0000380,01000600,0000.66,0000.58,0000.47,0000.52,0000.08,-000.29,0000.24,0000.03,0000.12,27.0,00.0,0647.2,34.4
2016-03-10T02:56:00Z,0000380,01000600,-001.92,-000.02,0000.56,0000.28,0000.44,0000.08,0000.15,0000.24,-000.11,27.0,00.0,0647.2,34.4
2016-03-10T02:57:00Z,0000380,41000600,,,,,,,,,,,,0647.1,34.4
2016-03-10T02:58:00Z,0000380,61000600,,,,,,,,,,26.8,00.0,0646.3,34.4
2016-03-10T02:59:00Z,0000380,21000600,,,,,,,,,,26.8,00.0,0646.3,34.4
2016-03-10T03:00:00Z,0000380,21000600,,,,,,,,,,26.8,00.0,0646.3,34.5
2016-03-10T03:01:00Z,0000380,21000600,,,,,,,,,,26.8,00.0,0646.3,34.5
2016-03-10T03:02:00Z,0000380,21000600,,,,,,,,,,26.8,00.0,0646.3,34.5
2016-03-10T03:03:00Z,0000380,61000600,,,,,,,,,,26.9,00.0,0646.3,34.5
2016-03-10T03:04:00Z,0000380,41000600,-000.55,0000.33,-000.11,-000.15,-000.15,-000.15,-000.12,-000.38,-000.36,26.9,00.0,0646.8,34.5
2016-03-10T03:05:00Z,0000380,01000600,0001.17,0000.59,-000.04,-000.28,-000.07,-000.21,0000.17,0000.17,0000.14,26.9,00.0,0647.0,34.5
2016-03-10T03:06:00Z,0000380,01000600,0001.51,0000.36,0000.19,-000.05,-000.18,-000.05,-000.07,0000.06,0000.03,26.9,00.0,0646.9,34.5
2016-03-10T03:07:00Z,0000380,01000600,0000.51,0000.48,-000.23,-000.10,-000.29,0000.31,-000.04,-000.06,-000.05,26.9,00.0,0646.8,34.5
2016-03-10T03:08:00Z,0000380,01000600,0001.36,0000.07,-000.12,0000.20,0000.33,-000.21,0000.03,0000.19,0000.49,26.8,00.0,0647.0,34.5
2016-03-10T03:09:00Z,0000380,01000600,0000.26,0000.00,-000.13,-000.51,0000.15,0000.18,-000.03,0000.04,-000.24,26.8,00.0,0646.8,34.5
2016-03-10T03:10:00Z,0000380,01000600,-000.25,-000.22,-000.15,-000.70,-000.31,0000.08,0000.06,-000.09,-000.07,26.8,00.0,0646.8,34.5
2016-03-10T03:11:00Z,0000380,01000600,-000.08,0000.60,-000.64,-000.44,-000.03,0000.16,0000.18,-000.08,0000.01,26.8,00.0,0646.7,34.5
2016-03-10T03:12:00Z,0000380,01000600,-000.38,0000.52,0000.72,-000.28,0000.03,0000.34,-000.13,0000.03,0000.13,26.8,00.0,0646.8,34.5